Date String (YYYY-MM-DD hh:mm:ss) UTC,Instrument flags,Ambient pressure (hPa),Sample flow (lpm),Bypass flow (lpm),Sample temperature (°C),Ambient temperature (°C),ASC tube jacket temperature (°C),LED temperature (°C),Box temperature (°C),Sample RH (%),Span deviation,Mass concentration (μg/m³),Mass concentration (μg/m³),Mass concentration (μg/m³)
DateTimeUTC,F1_M11,P_M11,Q1_M11,Q2_M11,T1_M11,T2_M11,T3_M11,T4_M11,T5_M11,U1_M11,ZSPAN_M11,X2_M11,X0_M11,X1_M11
2023-05-05 12:00:00,,0825.7,5.00,0.00,28.9,27.4,00.0,37.3,30.3,20.1,0000.0,0003.77,0010.32,0002.43
2023-05-05 12:01:00,,0825.8,5.00,0.00,28.9,27.4,00.0,37.3,30.3,20.0,0000.0,0003.76,0010.41,0002.43
2023-05-05 12:02:00,,0825.9,5.00,0.00,28.9,27.4,00.0,37.3,30.3,19.8,0000.0,0003.77,0010.77,0002.42
2023-05-05 12:03:00,,0825.8,5.00,0.00,28.9,27.4,00.0,37.3,30.3,19.7,0000.0,0003.80,0010.93,0002.43
2023-05-05 12:04:00,,0825.8,5.01,0.00,29.0,27.4,00.0,37.3,30.4,19.8,0000.0,0003.78,0010.99,0002.43
2023-05-05 12:05:00,,0825.8,5.01,0.00,29.0,27.4,00.0,37.3,30.4,19.9,0000.0,0003.81,0011.06,0002.43
2023-05-05 12:06:00,,0825.8,5.00,0.00,29.0,27.4,00.0,37.3,30.4,19.9,0000.0,0003.82,0010.54,0002.44
2023-05-05 12:07:00,,0825.8,5.00,0.00,29.0,27.4,00.0,37.3,30.4,20.0,0000.0,0003.80,0010.31,0002.42
2023-05-05 12:08:00,,0825.8,4.99,0.00,29.0,27.4,00.0,37.3,30.4,20.0,0000.0,0003.77,0009.45,0002.40
2023-05-05 12:09:00,,0825.8,4.99,0.00,29.0,27.4,00.0,37.3,30.4,20.1,0000.0,0003.72,0009.09,0002.41
2023-05-05 12:10:00,,0825.8,5.00,0.00,29.0,27.4,00.0,37.3,30.3,19.8,0000.0,0003.71,0009.15,0002.41
2023-05-05 12:11:00,,0825.8,5.01,0.00,29.0,27.4,00.0,37.3,30.4,19.6,0000.0,0003.69,0009.20,0002.38
2023-05-05 12:12:00,,0825.8,5.00,0.00,29.0,27.4,00.0,37.3,30.4,19.8,0000.0,0003.68,0009.19,0002.38
2023-05-05 12:13:00,,0825.8,4.99,0.00,29.0,27.4,00.0,37.3,30.3,20.0,0000.0,0003.70,0008.86,0002.40
2023-05-05 12:14:00,,0825.8,4.99,0.00,29.0,27.4,00.0,37.3,30.4,20.1,0000.0,0003.71,0009.36,0002.42
2023-05-05 12:15:00,,0825.8,5.00,0.00,29.0,27.4,00.0,37.3,30.4,19.8,0000.0,0003.74,0009.35,0002.46
2023-05-05 12:16:00,,0825.8,5.01,0.00,29.0,27.4,00.0,37.3,30.4,19.5,0000.0,0003.72,0009.30,0002.45
2023-05-05 12:17:00,,0825.7,5.00,0.00,29.0,27.4,00.0,37.3,30.3,18.6,0000.0,0003.72,0009.25,0002.44
2023-05-05 12:18:00,,0825.7,4.99,0.00,29.0,27.4,00.0,37.3,30.4,18.5,0000.0,0003.72,0009.16,0002.43
2023-05-05 12:19:00,,0825.8,4.99,0.00,29.0,27.3,00.0,37.3,30.4,18.3,0000.0,0003.73,0009.24,0002.42
2023-05-05 12:20:00,,0825.7,5.00,0.00,29.0,27.3,00.0,37.3,30.3,17.9,0000.0,0003.72,0010.07,0002.38
2023-05-05 12:21:00,,0825.7,5.01,0.00,29.0,27.3,00.0,37.4,30.3,17.9,0000.0,0003.75,0010.39,0002.36
2023-05-05 12:22:00,,0825.7,5.01,0.00,29.0,27.3,00.0,37.3,30.4,18.0,0000.0,0003.75,0009.67,0002.34
2023-05-05 12:23:00,,0825.7,5.00,0.00,29.0,27.3,00.0,37.4,30.3,18.3,0000.0,0003.75,0009.48,0002.32
2023-05-05 12:24:00,,0825.7,5.00,0.00,29.0,27.3,00.0,37.3,30.3,18.5,0000.0,0003.76,0009.89,0002.29
2023-05-05 12:25:00,,0825.8,5.00,0.00,29.0,27.3,00.0,37.3,30.3,18.4,0000.0,0003.76,0009.51,0002.28
2023-05-05 12:26:00,,0825.8,4.99,0.00,29.0,27.3,00.0,37.3,30.3,18.0,0000.0,0003.75,0009.67,0002.25
2023-05-05 12:27:00,,0825.7,4.99,0.00,28.9,27.3,00.0,37.3,30.3,17.6,0000.0,0003.79,0010.32,0002.25
2023-05-05 12:28:00,,0825.7,5.01,0.00,29.0,27.3,00.0,37.3,30.3,17.5,0000.0,0003.77,0010.37,0002.23
2023-05-05 12:29:00,,0825.8,5.00,0.00,28.9,27.3,00.0,37.3,30.3,17.5,0000.0,0003.74,0010.59,0002.23
2023-05-05 12:30:00,,0825.7,5.01,0.00,28.9,27.3,00.0,37.3,30.3,17.4,0000.0,0003.74,0010.68,0002.24
2023-05-05 12:31:00,,0825.7,4.98,0.00,28.9,27.2,00.0,37.3,30.3,17.4,0000.0,0003.78,0010.03,0002.25
2023-05-05 12:32:00,,0825.7,5.00,0.00,28.9,27.2,00.0,37.3,30.3,17.8,0000.0,0003.74,0009.62,0002.26
2023-05-05 12:33:00,,0825.8,5.00,0.00,28.9,27.2,00.0,37.3,30.2,18.1,0000.0,0003.72,0009.60,0002.26
2023-05-05 12:34:00,,0825.7,5.00,0.00,28.9,27.1,00.0,37.3,30.2,18.2,0000.0,0003.79,0009.95,0002.27
2023-05-05 12:35:00,,0825.8,5.01,0.00,28.9,27.1,00.0,37.3,30.2,17.6,0000.0,0003.83,0009.82,0002.26
2023-05-05 12:36:00,,0825.8,5.00,0.00,28.9,27.1,00.0,37.3,30.2,17.2,0000.0,0003.81,0009.72,0002.24
2023-05-05 12:37:00,,0825.8,5.01,0.00,28.9,27.1,00.0,37.3,30.2,17.2,0000.0,0003.78,0009.54,0002.21
2023-05-05 12:38:00,,0825.8,4.99,0.00,28.9,27.0,00.0,37.3,30.2,17.4,0000.0,0003.76,0009.41,0002.20
2023-05-05 12:39:00,,0825.7,5.00,0.00,28.9,27.0,00.0,37.3,30.2,17.3,0000.0,0003.81,0009.67,0002.21
2023-05-05 12:40:00,,0825.8,5.00,0.00,28.8,27.0,00.0,37.3,30.2,17.0,0000.0,0003.88,0009.58,0002.21
2023-05-05 12:41:00,,0825.8,4.99,0.00,28.8,27.0,00.0,37.3,30.2,17.0,0000.0,0003.91,0010.08,0002.19
2023-05-05 12:42:00,,0825.8,5.00,0.00,28.8,27.0,00.0,37.3,30.2,17.0,0000.0,0003.94,0010.25,0002.20
2023-05-05 12:43:00,,0825.8,5.00,0.00,28.8,27.0,00.0,37.3,30.2,17.0,0000.0,0003.95,0010.41,0002.20
2023-05-05 12:44:00,,0825.8,5.00,0.00,28.8,27.0,00.0,37.2,30.2,17.1,0000.0,0003.99,0010.78,0002.20
2023-05-05 12:45:00,,0825.8,5.00,0.00,28.8,27.0,00.0,37.2,30.2,17.1,0000.0,0003.96,0011.07,0002.21
2023-05-05 12:46:00,,0825.8,5.01,0.00,28.8,27.1,00.0,37.2,30.2,17.2,0000.0,0003.96,0011.38,0002.23
2023-05-05 12:47:00,,0825.8,5.00,0.00,28.8,27.1,00.0,37.2,30.2,17.2,0000.0,0004.02,0011.56,0002.27
2023-05-05 12:48:00,,0825.8,5.01,0.00,28.8,27.0,00.0,37.2,30.2,17.4,0000.0,0004.14,0012.00,0002.30
2023-05-05 12:49:00,,0825.8,5.00,0.00,28.8,27.0,00.0,37.2,30.2,17.3,0000.0,0004.20,0011.81,0002.31
2023-05-05 12:50:00,,0825.8,5.01,0.00,28.8,27.0,00.0,37.2,30.2,17.1,0000.0,0004.23,0011.69,0002.31
2023-05-05 12:51:00,,0825.8,5.00,0.00,28.8,27.0,00.0,37.2,30.2,17.2,0000.0,0004.25,0011.65,0002.33
2023-05-05 12:52:00,,0825.8,5.00,0.00,28.8,27.0,00.0,37.2,30.2,17.2,0000.0,0004.26,0011.23,0002.35
2023-05-05 12:53:00,,0825.8,4.99,0.00,28.8,27.0,00.0,37.2,30.2,16.9,0000.0,0004.21,0011.00,0002.35
2023-05-05 12:54:00,,0825.8,5.00,0.00,28.8,27.0,00.0,37.2,30.2,17.0,0000.0,0004.20,0010.90,0002.36
2023-05-05 12:55:00,,0825.8,5.00,0.00,28.8,27.1,00.0,37.2,30.2,17.0,0000.0,0004.20,0010.91,0002.38
2023-05-05 12:56:00,,0825.8,5.00,0.00,28.8,27.1,00.0,37.2,30.2,16.9,0000.0,0004.21,0010.75,0002.38
2023-05-05 12:57:00,,0825.8,5.00,0.00,28.8,27.1,00.0,37.2,30.1,16.9,0000.0,0004.24,0010.57,0002.38
2023-05-05 12:58:00,,0825.7,5.00,0.00,28.8,27.1,00.0,37.2,30.2,16.9,0000.0,0004.23,0010.38,0002.38
2023-05-05 12:59:00,,0825.8,5.00,0.00,28.8,27.1,00.0,37.2,30.2,17.0,0000.0,0004.16,0010.35,0002.38
